Location: ?????????
(38.5999°N, 22.7695°E)
Time: 04:05:35
(UTC+00:00)

PAYLOAD A - Pass Details

Date: 13 August 2024
Orbit: 690 x 831 km, 98.5° (Epoch: 09 September)

Event Time Altitude Azimuth Distance (km) Brightness Sun altitude
Rises 01:24:32 0° 25° (NNE) 3,182 8.4 -23.5°
Reaches altitude 10° 01:27:11 10° 38° (NE) 2,231 7.5 -23.2°
Maximum altitude 01:31:18 27° 96° (E) 1,353 5.7 -22.6°
Enters shadow 01:35:18 10° 154° (SSE) 2,160 6.2 -22.0°
